Regional Weather Roundup
Issued by NWS

Home | Current Version | Previous Version | Text Only | Print | Product List | Glossary On
Versions: 1 2 3 4 5 6 7 8 9 10 11 12 13 14 15 16 17 18 19 20 21 22 23 24 25 26 27 28 29 30 31 32 33 34 35 36 37 38 39 40 41 42 43 44 45 46 47 48 49 50
000
ASUS45 KCYS 252010
RWRWY

WYOMING REGIONAL WEATHER ROUNDUP
NATIONAL WEATHER SERVICE CHEYENNE WY
200 PM MDT FRI MAY 25 2018

NOTE:  "FAIR" INDICATES FEW OR NO CLOUDS BELOW 12,000 FEET
WITH NO SIGNIFICANT WEATHER AND/OR OBSTRUCTIONS TO VISIBILITY.

WYZ001-252100-
YELLOWSTONE NATIONAL PARK

CITY           SKY/WX    TMP DP  RH WIND       PRES   REMARKS
LK YELLOWSTONE   N/A     60  41  49 CALM      30.20F
W YELLOWSTONE  NOT AVBL

$$
WYZ002>013-054>058-071-098>099-252100-
NORTHERN WYOMING

CITY           SKY/WX    TMP DP  RH WIND       PRES   REMARKS
JACKSON        FAIR      71  44  37 SW8       30.11F
CODY           FAIR      75  49  39 S15       30.01F
GREYBULL       FAIR      80  46  30 SW5       29.95F
WORLAND        FAIR      80  45  28 CALM      29.96F
SHERIDAN       FAIR      79  52  38 VRB6      29.96F
BUFFALO        FAIR      77  49  37 SE9       30.01F
GILLETTE       FAIR      79  48  33 SW10      29.99F
NEWCASTLE      FAIR      77  45  31 NW10G17   30.00S

$$
WYZ014>020-022>026-101>103-252100-
CENTRAL WYOMING

CITY           SKY/WX    TMP DP  RH WIND       PRES   REMARKS
BIG PINEY      FAIR      73  30  20 S8        30.14F
PINEDALE       FAIR      70  32  24 S5G18     30.16F
DUBOIS         FAIR      70  28  21 W10       30.13F
LANDER         FAIR      74  49  41 N8        30.05F
RIVERTON       FAIR      76  45  33 E5        30.04F
CASPER         FAIR      78  45  30 W8        30.04F
DOUGLAS        FAIR      81  46  29 NW18G28   30.02F

$$
WYZ021-027>030-104>119-252100-
SOUTHERN WYOMING

CITY           SKY/WX    TMP DP  RH WIND       PRES   REMARKS
EVANSTON       FAIR      75  36  24 SE9       30.11F
FORT BRIDGER   FAIR      77  29  17 SE3       30.14F
ROCK SPRINGS   FAIR      78  24  13 SW12      30.10F
DIXON          FAIR      81  21  10 S9G21     30.14F
RAWLINS        FAIR      81  21  11 SW17G26   30.13F
SARATOGA       FAIR      79  25  13 SW12      30.16F
LARAMIE        FAIR      78  24  13 MISG      30.15F
CHEYENNE       FAIR      80  33  18 VRB6      30.10F
TORRINGTON     FAIR      84  46  26 SW3       29.97F
PINE BLUFFS    FAIR      81  37  21 SW9       30.05S

$$



USA.gov is the U.S. government's official web portal to all federal, state and local government web resources and services.